Year,Month,Day,Hour,Minute,Value (Times are PST for temperature in C)
2018,07,18,00,00,19.10
2018,07,18,00,01,19.10
2018,07,18,00,02,19.00
2018,07,18,00,03,19.00
2018,07,18,00,04,19.00
2018,07,18,00,05,19.00
2018,07,18,00,06,18.90
2018,07,18,00,07,18.90
2018,07,18,00,08,18.90
2018,07,18,00,09,18.90
2018,07,18,00,10,18.90
2018,07,18,00,11,18.90
2018,07,18,00,12,18.90
2018,07,18,00,13,18.80
2018,07,18,00,14,18.80
2018,07,18,00,15,18.80
2018,07,18,00,16,18.80
2018,07,18,00,17,18.80
2018,07,18,00,18,18.80
2018,07,18,00,19,18.80
2018,07,18,00,20,18.70
2018,07,18,00,21,18.70
2018,07,18,00,22,18.70
2018,07,18,00,23,18.70
2018,07,18,00,24,18.70
2018,07,18,00,25,18.70
2018,07,18,00,26,18.60
2018,07,18,00,27,18.60
2018,07,18,00,28,18.60
2018,07,18,00,29,18.60
2018,07,18,00,30,18.60
2018,07,18,00,31,18.60
2018,07,18,00,32,18.60
2018,07,18,00,33,18.50
2018,07,18,00,34,18.50
2018,07,18,00,35,18.50
2018,07,18,00,36,18.50
2018,07,18,00,37,18.50
2018,07,18,00,38,18.40
2018,07,18,00,39,18.40
2018,07,18,00,40,18.40
2018,07,18,00,41,18.40
2018,07,18,00,42,18.40
2018,07,18,00,43,18.40
2018,07,18,00,44,18.40
2018,07,18,00,45,18.40
2018,07,18,00,46,18.40
2018,07,18,00,47,18.30
2018,07,18,00,48,18.30
2018,07,18,00,49,18.30
2018,07,18,00,50,18.30
2018,07,18,00,51,18.30
2018,07,18,00,52,18.30
2018,07,18,00,53,18.30
2018,07,18,00,54,18.30
2018,07,18,00,55,18.30
2018,07,18,00,56,18.30
2018,07,18,00,57,18.30
2018,07,18,00,58,18.30
2018,07,18,00,59,18.30
2018,07,18,01,00,18.30
2018,07,18,01,01,18.30
2018,07,18,01,02,18.30
2018,07,18,01,03,18.30
2018,07,18,01,04,18.30
2018,07,18,01,05,18.20
2018,07,18,01,06,18.20
2018,07,18,01,07,18.20
2018,07,18,01,08,18.20
2018,07,18,01,09,18.20
2018,07,18,01,10,18.20
2018,07,18,01,11,18.20
2018,07,18,01,12,18.20
2018,07,18,01,13,18.20
2018,07,18,01,14,18.10
2018,07,18,01,15,18.10
2018,07,18,01,16,18.10
2018,07,18,01,17,18.10
2018,07,18,01,18,18.10
2018,07,18,01,19,18.10
2018,07,18,01,20,18.10
2018,07,18,01,21,18.10
2018,07,18,01,22,18.10
2018,07,18,01,23,18.10
2018,07,18,01,24,18.10
2018,07,18,01,25,18.10
2018,07,18,01,26,18.10
2018,07,18,01,27,18.10
2018,07,18,01,28,18.10
2018,07,18,01,29,18.10
2018,07,18,01,30,18.10
2018,07,18,01,31,18.10
2018,07,18,01,32,18.10
2018,07,18,01,33,18.10
2018,07,18,01,34,18.10
2018,07,18,01,35,18.10
2018,07,18,01,36,18.10
2018,07,18,01,37,18.00
2018,07,18,01,38,18.10
2018,07,18,01,39,18.00
2018,07,18,01,40,18.00
2018,07,18,01,41,18.00
2018,07,18,01,42,18.00
2018,07,18,01,43,18.00
2018,07,18,01,44,18.00
2018,07,18,01,45,18.10
2018,07,18,01,46,18.10
2018,07,18,01,47,18.00
2018,07,18,01,48,18.00
2018,07,18,01,49,18.00
2018,07,18,01,50,18.00
2018,07,18,01,51,18.00
2018,07,18,01,52,17.90
2018,07,18,01,53,17.90
2018,07,18,01,54,17.90
2018,07,18,01,55,17.90
2018,07,18,01,56,17.90
2018,07,18,01,57,17.80
2018,07,18,01,58,17.80
2018,07,18,01,59,17.80
2018,07,18,02,00,17.70
2018,07,18,02,01,17.70
2018,07,18,02,02,17.70
2018,07,18,02,03,17.60
2018,07,18,02,04,17.60
2018,07,18,02,05,17.60
2018,07,18,02,06,17.50
2018,07,18,02,07,17.50
2018,07,18,02,08,17.50
2018,07,18,02,09,17.40
2018,07,18,02,10,17.40
2018,07,18,02,11,17.40
2018,07,18,02,12,17.40
2018,07,18,02,13,17.30
2018,07,18,02,14,17.30
2018,07,18,02,15,17.30
2018,07,18,02,16,17.30
2018,07,18,02,17,17.30
2018,07,18,02,18,17.30
2018,07,18,02,19,17.30
2018,07,18,02,20,17.20
2018,07,18,02,21,17.20
2018,07,18,02,22,17.20
2018,07,18,02,23,17.20
2018,07,18,02,24,17.20
2018,07,18,02,25,17.10
2018,07,18,02,26,17.10
2018,07,18,02,27,17.10
2018,07,18,02,28,17.10
2018,07,18,02,29,17.10
2018,07,18,02,30,17.10
2018,07,18,02,31,17.10
2018,07,18,02,32,17.10
2018,07,18,02,33,17.00
2018,07,18,02,34,17.00
2018,07,18,02,35,17.00
2018,07,18,02,36,17.00
2018,07,18,02,37,16.90
2018,07,18,02,38,16.90
2018,07,18,02,39,16.90
2018,07,18,02,40,16.90
2018,07,18,02,41,16.90
2018,07,18,02,42,16.90
2018,07,18,02,43,16.90
2018,07,18,02,44,16.90
2018,07,18,02,45,16.90
2018,07,18,02,46,16.90
2018,07,18,02,47,16.90
2018,07,18,02,48,16.90
2018,07,18,02,49,16.90
2018,07,18,02,50,16.80
2018,07,18,02,51,16.80
2018,07,18,02,52,16.80
2018,07,18,02,53,16.80
2018,07,18,02,54,16.80
2018,07,18,02,55,16.80
2018,07,18,02,56,16.80
2018,07,18,02,57,16.80
2018,07,18,02,58,16.80
2018,07,18,02,59,16.80
2018,07,18,03,00,16.80
2018,07,18,03,01,16.80
2018,07,18,03,02,16.80
2018,07,18,03,03,16.70
2018,07,18,03,04,16.70
2018,07,18,03,05,16.70
2018,07,18,03,06,16.70
2018,07,18,03,07,16.70
2018,07,18,03,08,16.70
2018,07,18,03,09,16.70
2018,07,18,03,10,16.70
2018,07,18,03,11,16.70
2018,07,18,03,12,16.70
2018,07,18,03,13,16.70
2018,07,18,03,14,16.70
2018,07,18,03,15,16.70
2018,07,18,03,16,16.70
2018,07,18,03,17,16.70
2018,07,18,03,18,16.70
2018,07,18,03,19,16.70
2018,07,18,03,20,16.60
2018,07,18,03,21,16.60
2018,07,18,03,22,16.60
2018,07,18,03,23,16.60
2018,07,18,03,24,16.60
2018,07,18,03,25,16.60
2018,07,18,03,26,16.60
2018,07,18,03,27,16.60
2018,07,18,03,28,16.60
2018,07,18,03,29,16.50
2018,07,18,03,30,16.50
2018,07,18,03,31,16.50
2018,07,18,03,32,16.50
2018,07,18,03,33,16.50
2018,07,18,03,34,16.50
2018,07,18,03,35,16.50
2018,07,18,03,36,16.50
2018,07,18,03,37,16.50
2018,07,18,03,38,16.50
2018,07,18,03,39,16.50
2018,07,18,03,40,16.40
2018,07,18,03,41,16.40
2018,07,18,03,42,16.40
2018,07,18,03,43,16.40
2018,07,18,03,44,16.40
2018,07,18,03,45,16.40
2018,07,18,03,46,16.40
2018,07,18,03,47,16.30
2018,07,18,03,48,16.30
2018,07,18,03,49,16.30
2018,07,18,03,50,16.30
2018,07,18,03,51,16.30
2018,07,18,03,52,16.30
2018,07,18,03,53,16.30
2018,07,18,03,54,16.30
2018,07,18,03,55,16.30
2018,07,18,03,56,16.30
2018,07,18,03,57,16.30
2018,07,18,03,58,16.20
2018,07,18,03,59,16.20
2018,07,18,04,00,16.20
2018,07,18,04,01,16.20
2018,07,18,04,02,16.20
2018,07,18,04,03,16.20
2018,07,18,04,04,16.20
2018,07,18,04,05,16.20
2018,07,18,04,06,16.20
2018,07,18,04,07,16.20
2018,07,18,04,08,16.20
2018,07,18,04,09,16.10
2018,07,18,04,10,16.10
2018,07,18,04,11,16.10
2018,07,18,04,12,16.10
2018,07,18,04,13,16.10
2018,07,18,04,14,16.10
2018,07,18,04,15,16.10
2018,07,18,04,16,16.10
2018,07,18,04,17,16.10
2018,07,18,04,18,16.10
2018,07,18,04,19,16.10
2018,07,18,04,20,16.10
2018,07,18,04,21,16.10
2018,07,18,04,22,16.10
2018,07,18,04,23,16.10
2018,07,18,04,24,16.10
2018,07,18,04,25,16.10
2018,07,18,04,26,16.00
2018,07,18,04,27,16.10
2018,07,18,04,28,16.10
2018,07,18,04,29,16.00
2018,07,18,04,30,16.00
2018,07,18,04,31,16.00
2018,07,18,04,32,16.00
2018,07,18,04,33,16.00
2018,07,18,04,34,16.00
2018,07,18,04,35,15.90
2018,07,18,04,36,15.90
2018,07,18,04,37,15.90
2018,07,18,04,38,15.90
2018,07,18,04,39,15.90
2018,07,18,04,40,15.90
2018,07,18,04,41,15.90
2018,07,18,04,42,15.90
2018,07,18,04,43,15.80
2018,07,18,04,44,15.80
2018,07,18,04,45,15.80
2018,07,18,04,46,15.80
2018,07,18,04,47,15.80
2018,07,18,04,48,15.80
2018,07,18,04,49,15.80
2018,07,18,04,50,15.80
2018,07,18,04,51,15.80
2018,07,18,04,52,15.80
2018,07,18,04,53,15.80
2018,07,18,04,54,15.80
2018,07,18,04,55,15.80
2018,07,18,04,56,15.80
2018,07,18,04,57,15.80
2018,07,18,04,58,15.70
2018,07,18,04,59,15.70
2018,07,18,05,00,15.70
2018,07,18,05,01,15.70
2018,07,18,05,02,15.70
2018,07,18,05,03,15.70
2018,07,18,05,04,15.70
2018,07,18,05,05,15.70
2018,07,18,05,06,15.70
2018,07,18,05,07,15.70
2018,07,18,05,08,15.70
2018,07,18,05,09,15.70
2018,07,18,05,10,15.70
2018,07,18,05,11,15.70
2018,07,18,05,12,15.60
2018,07,18,05,13,15.60
2018,07,18,05,14,15.60
2018,07,18,05,15,15.60
2018,07,18,05,16,15.60
2018,07,18,05,17,15.60
2018,07,18,05,18,15.60
2018,07,18,05,19,15.60
2018,07,18,05,20,15.60
2018,07,18,05,21,15.60
2018,07,18,05,22,15.60
2018,07,18,05,23,15.60
2018,07,18,05,24,15.60
2018,07,18,05,25,15.60
2018,07,18,05,26,15.60
2018,07,18,05,27,15.60
2018,07,18,05,28,15.60
2018,07,18,05,29,15.60
2018,07,18,05,30,15.60
2018,07,18,05,31,15.60
2018,07,18,05,32,15.60
2018,07,18,05,33,15.50
2018,07,18,05,34,15.60
2018,07,18,05,35,15.60
2018,07,18,05,36,15.60
2018,07,18,05,37,15.50
2018,07,18,05,38,15.50
2018,07,18,05,39,15.50
2018,07,18,05,40,15.50
2018,07,18,05,41,15.50
2018,07,18,05,42,15.50
2018,07,18,05,43,15.50
2018,07,18,05,44,15.50
2018,07,18,05,45,15.50
2018,07,18,05,46,15.50
2018,07,18,05,47,15.50
2018,07,18,05,48,15.50
2018,07,18,05,49,15.50
2018,07,18,05,50,15.50
2018,07,18,05,51,15.50
2018,07,18,05,52,15.50
2018,07,18,05,53,15.50
2018,07,18,05,54,15.50
2018,07,18,05,55,15.50
2018,07,18,05,56,15.40
2018,07,18,05,57,15.40
2018,07,18,05,58,15.40
2018,07,18,05,59,15.40
2018,07,18,06,00,15.50
2018,07,18,06,01,15.50
2018,07,18,06,02,15.50
2018,07,18,06,03,15.50
2018,07,18,06,04,15.50
2018,07,18,06,05,15.50
2018,07,18,06,06,15.50
2018,07,18,06,07,15.60
2018,07,18,06,08,15.60
2018,07,18,06,09,15.60
2018,07,18,06,10,15.60
2018,07,18,06,11,15.60
2018,07,18,06,12,15.60
2018,07,18,06,13,15.60
2018,07,18,06,14,15.60
2018,07,18,06,15,15.70
2018,07,18,06,16,15.70
2018,07,18,06,17,15.70
2018,07,18,06,18,15.70
2018,07,18,06,19,15.70
2018,07,18,06,20,15.70
2018,07,18,06,21,15.70
2018,07,18,06,22,15.70
2018,07,18,06,23,15.80
2018,07,18,06,24,15.80
2018,07,18,06,25,15.80
2018,07,18,06,26,15.80
2018,07,18,06,27,15.80
2018,07,18,06,28,15.90
2018,07,18,06,29,15.90
2018,07,18,06,30,15.90
2018,07,18,06,31,15.90
2018,07,18,06,32,15.90
2018,07,18,06,33,15.90
2018,07,18,06,34,16.00
2018,07,18,06,35,16.00
2018,07,18,06,36,16.00
2018,07,18,06,37,16.10
2018,07,18,06,38,16.10
2018,07,18,06,39,16.10
2018,07,18,06,40,16.10
2018,07,18,06,41,16.20
2018,07,18,06,42,16.20
2018,07,18,06,43,16.20
2018,07,18,06,44,16.20
2018,07,18,06,45,16.20
2018,07,18,06,46,16.20
2018,07,18,06,47,16.30
2018,07,18,06,48,16.30
2018,07,18,06,49,16.30
2018,07,18,06,50,16.30
2018,07,18,06,51,16.40
2018,07,18,06,52,16.40
2018,07,18,06,53,16.40
2018,07,18,06,54,16.40
2018,07,18,06,55,16.40
2018,07,18,06,56,16.40
2018,07,18,06,57,16.40
2018,07,18,06,58,16.50
2018,07,18,06,59,16.50
2018,07,18,07,00,16.60
2018,07,18,07,01,16.60
2018,07,18,07,02,16.70
2018,07,18,07,03,16.70
2018,07,18,07,04,16.70
2018,07,18,07,05,16.70
2018,07,18,07,06,16.70
2018,07,18,07,07,16.80
2018,07,18,07,08,16.80
2018,07,18,07,09,16.80
2018,07,18,07,10,16.90
2018,07,18,07,11,16.90
2018,07,18,07,12,17.00
2018,07,18,07,13,17.00
2018,07,18,07,14,17.00
2018,07,18,07,15,17.00
2018,07,18,07,16,17.00
2018,07,18,07,17,17.00
2018,07,18,07,18,17.00
2018,07,18,07,19,17.00
2018,07,18,07,20,17.00
2018,07,18,07,21,17.00
2018,07,18,07,22,17.00
2018,07,18,07,23,17.00
2018,07,18,07,24,17.00
2018,07,18,07,25,17.00
2018,07,18,07,26,17.00
2018,07,18,07,27,17.00
2018,07,18,07,28,17.00
2018,07,18,07,29,17.10
2018,07,18,07,30,17.10
2018,07,18,07,31,17.10
2018,07,18,07,32,17.10
2018,07,18,07,33,17.10
2018,07,18,07,34,17.10
2018,07,18,07,35,17.20
2018,07,18,07,36,17.20
2018,07,18,07,37,17.30
2018,07,18,07,38,17.30
2018,07,18,07,39,17.30
2018,07,18,07,40,17.40
2018,07,18,07,41,17.50
2018,07,18,07,42,17.60
2018,07,18,07,43,17.70
2018,07,18,07,44,17.70
2018,07,18,07,45,17.70
2018,07,18,07,46,17.70
2018,07,18,07,47,17.80
2018,07,18,07,48,17.80
2018,07,18,07,49,17.80
2018,07,18,07,50,17.80
2018,07,18,07,51,17.80
2018,07,18,07,52,17.90
2018,07,18,07,53,17.90
2018,07,18,07,54,18.00
2018,07,18,07,55,18.00
2018,07,18,07,56,18.10
2018,07,18,07,57,18.10
2018,07,18,07,58,18.20
2018,07,18,07,59,18.20
2018,07,18,08,00,18.30
2018,07,18,08,01,18.30
2018,07,18,08,02,18.40
2018,07,18,08,03,18.40
2018,07,18,08,04,18.50
2018,07,18,08,05,18.50
2018,07,18,08,06,18.50
2018,07,18,08,07,18.50
2018,07,18,08,08,18.50
2018,07,18,08,09,18.50
2018,07,18,08,10,18.50
2018,07,18,08,11,18.50
2018,07,18,08,12,18.50
2018,07,18,08,13,18.50
2018,07,18,08,14,18.50
2018,07,18,08,15,18.50
2018,07,18,08,16,18.50
2018,07,18,08,17,18.40
2018,07,18,08,18,18.40
2018,07,18,08,19,18.40
2018,07,18,08,20,18.40
2018,07,18,08,21,18.50
2018,07,18,08,22,18.50
2018,07,18,08,23,18.60
2018,07,18,08,24,18.60
2018,07,18,08,25,18.60
2018,07,18,08,26,18.50
2018,07,18,08,27,18.50
2018,07,18,08,28,18.40
2018,07,18,08,29,18.40
2018,07,18,08,30,18.50
2018,07,18,08,31,18.60
2018,07,18,08,32,18.60
2018,07,18,08,33,18.70
2018,07,18,08,34,18.70
2018,07,18,08,35,18.70
2018,07,18,08,36,18.60
2018,07,18,08,37,18.60
2018,07,18,08,38,18.50
2018,07,18,08,39,18.50
2018,07,18,08,40,18.60
2018,07,18,08,41,18.60
2018,07,18,08,42,18.70
2018,07,18,08,43,18.70
2018,07,18,08,44,18.80
2018,07,18,08,45,18.90
2018,07,18,08,46,18.90
2018,07,18,08,47,19.00
2018,07,18,08,48,19.00
2018,07,18,08,49,19.00
2018,07,18,08,50,19.00
2018,07,18,08,51,19.00
2018,07,18,08,52,19.00
2018,07,18,08,53,19.00
2018,07,18,08,54,18.90
2018,07,18,08,55,18.90
2018,07,18,08,56,18.80
2018,07,18,08,57,18.80
2018,07,18,08,58,18.70
2018,07,18,08,59,18.70
2018,07,18,09,00,18.70
2018,07,18,09,01,18.70
2018,07,18,09,02,18.80
2018,07,18,09,03,18.70
2018,07,18,09,04,18.70
2018,07,18,09,05,18.70
2018,07,18,09,06,18.70
2018,07,18,09,07,18.80
2018,07,18,09,08,18.90
2018,07,18,09,09,19.00
2018,07,18,09,10,19.10
2018,07,18,09,11,19.10
2018,07,18,09,12,19.10
2018,07,18,09,13,19.20
2018,07,18,09,14,19.20
2018,07,18,09,15,19.20
2018,07,18,09,16,19.20
2018,07,18,09,17,19.30
2018,07,18,09,18,19.30
2018,07,18,09,19,19.40
2018,07,18,09,20,19.40
2018,07,18,09,21,19.40
2018,07,18,09,22,19.40
2018,07,18,09,23,19.30
2018,07,18,09,24,19.20
2018,07,18,09,25,19.20
2018,07,18,09,26,19.30
2018,07,18,09,27,19.30
2018,07,18,09,28,19.40
2018,07,18,09,29,19.40
2018,07,18,09,30,19.40
2018,07,18,09,31,19.40
2018,07,18,09,32,19.40
2018,07,18,09,33,19.40
2018,07,18,09,34,19.40
2018,07,18,09,35,19.30
2018,07,18,09,36,19.20
2018,07,18,09,37,19.20
2018,07,18,09,38,19.20
2018,07,18,09,39,19.30
2018,07,18,09,40,19.30
2018,07,18,09,41,19.40
2018,07,18,09,42,19.50
2018,07,18,09,43,19.50
2018,07,18,09,44,19.60
2018,07,18,09,45,19.60
2018,07,18,09,46,19.70
2018,07,18,09,47,19.70
2018,07,18,09,48,19.70
2018,07,18,09,49,19.80
2018,07,18,09,50,19.80
2018,07,18,09,51,19.90
2018,07,18,09,52,19.90
2018,07,18,09,53,20.00
2018,07,18,09,54,20.00
2018,07,18,09,55,20.00
2018,07,18,09,56,19.90
2018,07,18,09,57,20.00
2018,07,18,09,58,20.10
2018,07,18,09,59,20.10
2018,07,18,10,00,20.00
2018,07,18,10,01,19.90
2018,07,18,10,02,19.90
2018,07,18,10,03,19.90
2018,07,18,10,04,19.90
2018,07,18,10,05,20.00
2018,07,18,10,06,20.10
2018,07,18,10,07,20.10
2018,07,18,10,08,20.10
2018,07,18,10,09,20.10
2018,07,18,10,10,20.20
2018,07,18,10,11,20.20
2018,07,18,10,12,20.20
2018,07,18,10,13,20.10
2018,07,18,10,14,20.00
2018,07,18,10,15,20.00
2018,07,18,10,16,20.00
2018,07,18,10,17,20.00
2018,07,18,10,18,19.90
2018,07,18,10,19,20.00
2018,07,18,10,20,20.00
2018,07,18,10,21,20.10
2018,07,18,10,22,20.10
2018,07,18,10,23,20.20
2018,07,18,10,24,20.20
2018,07,18,10,25,20.30
2018,07,18,10,26,20.30
2018,07,18,10,27,20.30
2018,07,18,10,28,20.40
2018,07,18,10,29,20.50
2018,07,18,10,30,20.50
2018,07,18,10,31,20.60
2018,07,18,10,32,20.60
2018,07,18,10,33,20.40
2018,07,18,10,34,20.40
2018,07,18,10,35,20.40
2018,07,18,10,36,20.50
2018,07,18,10,37,20.60
2018,07,18,10,38,20.60
2018,07,18,10,39,20.80
2018,07,18,10,40,20.90
2018,07,18,10,41,21.00
2018,07,18,10,42,21.20
2018,07,18,10,43,21.30
2018,07,18,10,44,21.30
2018,07,18,10,45,21.40
2018,07,18,10,46,21.40
2018,07,18,10,47,21.40
2018,07,18,10,48,21.50
2018,07,18,10,49,21.50
2018,07,18,10,50,21.50
2018,07,18,10,51,21.40
2018,07,18,10,52,21.40
2018,07,18,10,53,21.30
2018,07,18,10,54,21.20
2018,07,18,10,55,21.10
2018,07,18,10,56,21.10
2018,07,18,10,57,21.20
2018,07,18,10,58,21.30
2018,07,18,10,59,21.40
2018,07,18,11,00,21.40
2018,07,18,11,01,21.40
2018,07,18,11,02,21.30
2018,07,18,11,03,21.30
2018,07,18,11,04,21.20
2018,07,18,11,05,21.20
2018,07,18,11,06,21.20
2018,07,18,11,07,21.20
2018,07,18,11,08,21.30
2018,07,18,11,09,21.30
2018,07,18,11,10,21.30
2018,07,18,11,11,21.20
2018,07,18,11,12,21.10
2018,07,18,11,13,21.10
2018,07,18,11,14,21.20
2018,07,18,11,15,21.30
2018,07,18,11,16,21.30
2018,07,18,11,17,21.30
2018,07,18,11,18,21.30
2018,07,18,11,19,21.30
2018,07,18,11,20,21.30
2018,07,18,11,21,21.30
2018,07,18,11,22,21.40
2018,07,18,11,23,21.40
2018,07,18,11,24,21.40
2018,07,18,11,25,21.30
2018,07,18,11,26,21.20
2018,07,18,11,27,21.20
2018,07,18,11,28,21.30
2018,07,18,11,29,21.40
2018,07,18,11,30,21.40
2018,07,18,11,31,21.40
2018,07,18,11,32,21.40
2018,07,18,11,33,21.50
2018,07,18,11,34,21.50
2018,07,18,11,35,21.50
2018,07,18,11,36,21.50
2018,07,18,11,37,21.60
2018,07,18,11,38,21.60
2018,07,18,11,39,21.60
2018,07,18,11,40,21.60
2018,07,18,11,41,21.70
2018,07,18,11,42,21.80
2018,07,18,11,43,21.80
2018,07,18,11,44,21.80
2018,07,18,11,45,21.70
2018,07,18,11,46,21.80
2018,07,18,11,47,21.80
2018,07,18,11,48,21.70
2018,07,18,11,49,21.60
2018,07,18,11,50,21.60
2018,07,18,11,51,21.50
2018,07,18,11,52,21.30
2018,07,18,11,53,21.30
2018,07,18,11,54,21.30
2018,07,18,11,55,21.40
2018,07,18,11,56,21.50
2018,07,18,11,57,21.60
2018,07,18,11,58,21.70
2018,07,18,11,59,21.80
2018,07,18,12,00,21.90
2018,07,18,12,01,21.90
2018,07,18,12,02,21.90
2018,07,18,12,03,21.70
2018,07,18,12,04,21.50
2018,07,18,12,05,21.40
2018,07,18,12,06,21.30
2018,07,18,12,07,21.30
2018,07,18,12,08,21.40
2018,07,18,12,09,21.50
2018,07,18,12,10,21.60
2018,07,18,12,11,21.60
2018,07,18,12,12,21.70
2018,07,18,12,13,21.70
2018,07,18,12,14,21.80
2018,07,18,12,15,21.90
2018,07,18,12,16,22.00
2018,07,18,12,17,22.10
2018,07,18,12,18,22.20
2018,07,18,12,19,22.20
2018,07,18,12,20,22.20
2018,07,18,12,21,22.20
2018,07,18,12,22,22.20
2018,07,18,12,23,22.30
2018,07,18,12,24,22.20
2018,07,18,12,25,22.10
2018,07,18,12,26,21.90
2018,07,18,12,27,21.80
2018,07,18,12,28,21.80
2018,07,18,12,29,21.80
2018,07,18,12,30,21.70
2018,07,18,12,31,21.70
2018,07,18,12,32,21.60
2018,07,18,12,33,21.50
2018,07,18,12,34,21.40
2018,07,18,12,35,21.40
2018,07,18,12,36,21.40
2018,07,18,12,37,21.50
2018,07,18,12,38,21.60
2018,07,18,12,39,21.60
2018,07,18,12,40,21.50
2018,07,18,12,41,21.50
2018,07,18,12,42,21.40
2018,07,18,12,43,21.30
2018,07,18,12,44,21.30
2018,07,18,12,45,21.40
2018,07,18,12,46,21.50
2018,07,18,12,47,21.60
2018,07,18,12,48,21.60
2018,07,18,12,49,21.60
2018,07,18,12,50,21.60
2018,07,18,12,51,21.60
2018,07,18,12,52,21.50
2018,07,18,12,53,21.50
2018,07,18,12,54,21.40
2018,07,18,12,55,21.40
2018,07,18,12,56,21.40
2018,07,18,12,57,21.40
2018,07,18,12,58,21.40
2018,07,18,12,59,21.30
2018,07,18,13,00,21.30
2018,07,18,13,01,21.30
2018,07,18,13,02,21.30
2018,07,18,13,03,21.40
2018,07,18,13,04,21.40
2018,07,18,13,05,21.40
2018,07,18,13,06,21.40
2018,07,18,13,07,21.40
2018,07,18,13,08,21.40
2018,07,18,13,09,21.30
2018,07,18,13,10,21.30
2018,07,18,13,11,21.40
2018,07,18,13,12,21.50
2018,07,18,13,13,21.50
2018,07,18,13,14,21.50
2018,07,18,13,15,21.50
2018,07,18,13,16,21.60
2018,07,18,13,17,21.60
2018,07,18,13,18,21.60
2018,07,18,13,19,21.60
2018,07,18,13,20,21.60
2018,07,18,13,21,21.50
2018,07,18,13,22,21.50
2018,07,18,13,23,21.40
2018,07,18,13,24,21.30
2018,07,18,13,25,21.30
2018,07,18,13,26,21.30
2018,07,18,13,27,21.30
2018,07,18,13,28,21.30
2018,07,18,13,29,21.30
2018,07,18,13,30,21.30
2018,07,18,13,31,21.30
2018,07,18,13,32,21.30
2018,07,18,13,33,21.30
2018,07,18,13,34,21.30
2018,07,18,13,35,21.30
2018,07,18,13,36,21.40
2018,07,18,13,37,21.40
2018,07,18,13,38,21.40
2018,07,18,13,39,21.40
2018,07,18,13,40,21.40
2018,07,18,13,41,21.50
2018,07,18,13,42,21.60
2018,07,18,13,43,21.70
2018,07,18,13,44,21.70
2018,07,18,13,45,21.70
2018,07,18,13,46,21.70
2018,07,18,13,47,21.70
2018,07,18,13,48,21.60
2018,07,18,13,49,21.50
2018,07,18,13,50,21.40
2018,07,18,13,51,21.30
2018,07,18,13,52,21.30
2018,07,18,13,53,21.20
2018,07,18,13,54,21.20
2018,07,18,13,55,21.20
2018,07,18,13,56,21.20
2018,07,18,13,57,21.20
2018,07,18,13,58,21.20
2018,07,18,13,59,21.20
2018,07,18,14,00,21.30
2018,07,18,14,01,21.30
2018,07,18,14,02,21.30
2018,07,18,14,03,21.30
2018,07,18,14,04,21.20
2018,07,18,14,05,21.20
2018,07,18,14,06,21.10
2018,07,18,14,07,21.20
2018,07,18,14,08,21.20
2018,07,18,14,09,21.20
2018,07,18,14,10,21.10
2018,07,18,14,11,21.10
2018,07,18,14,12,21.10
2018,07,18,14,13,21.10
2018,07,18,14,14,21.20
2018,07,18,14,15,21.30
2018,07,18,14,16,21.40
2018,07,18,14,17,21.40
2018,07,18,14,18,21.40
2018,07,18,14,19,21.40
2018,07,18,14,20,21.30
2018,07,18,14,21,21.20
2018,07,18,14,22,21.20
2018,07,18,14,23,21.20
2018,07,18,14,24,21.10
2018,07,18,14,25,21.00
2018,07,18,14,26,21.10
2018,07,18,14,27,21.10
2018,07,18,14,28,21.00
2018,07,18,14,29,20.80
2018,07,18,14,30,20.50
2018,07,18,14,31,20.20
2018,07,18,14,32,20.00
2018,07,18,14,33,19.80
2018,07,18,14,34,19.70
2018,07,18,14,35,19.60
2018,07,18,14,36,19.50
2018,07,18,14,37,19.40
2018,07,18,14,38,19.40
2018,07,18,14,39,19.40
2018,07,18,14,40,19.40
2018,07,18,14,41,19.40
2018,07,18,14,42,19.40
2018,07,18,14,43,19.50
2018,07,18,14,44,19.50
2018,07,18,14,45,19.50
2018,07,18,14,46,19.60
2018,07,18,14,47,19.70
2018,07,18,14,48,19.70
2018,07,18,14,49,19.80
2018,07,18,14,50,19.80
2018,07,18,14,51,19.90
2018,07,18,14,52,19.90
2018,07,18,14,53,19.90
2018,07,18,14,54,19.90
2018,07,18,14,55,19.80
2018,07,18,14,56,19.70
2018,07,18,14,57,19.70
2018,07,18,14,58,19.80
2018,07,18,14,59,19.80
2018,07,18,15,00,19.90
2018,07,18,15,01,19.90
2018,07,18,15,02,20.00
2018,07,18,15,03,20.00
2018,07,18,15,04,20.00
2018,07,18,15,05,20.00
2018,07,18,15,06,20.10
2018,07,18,15,07,20.10
2018,07,18,15,08,20.10
2018,07,18,15,09,20.00
2018,07,18,15,10,19.80
2018,07,18,15,11,19.70
2018,07,18,15,12,19.50
2018,07,18,15,13,19.40
2018,07,18,15,14,19.20
2018,07,18,15,15,19.10
2018,07,18,15,16,19.10
2018,07,18,15,17,19.00
2018,07,18,15,18,19.10
2018,07,18,15,19,19.10
2018,07,18,15,20,19.10
2018,07,18,15,21,19.00
2018,07,18,15,22,19.10
2018,07,18,15,23,19.10
2018,07,18,15,24,19.20
2018,07,18,15,25,19.30
2018,07,18,15,26,19.30
2018,07,18,15,27,19.30
2018,07,18,15,28,19.30
2018,07,18,15,29,19.20
2018,07,18,15,30,19.20
2018,07,18,15,31,19.30
2018,07,18,15,32,19.40
2018,07,18,15,33,19.30
2018,07,18,15,34,19.30
2018,07,18,15,35,19.30
2018,07,18,15,36,19.30
2018,07,18,15,37,19.30
2018,07,18,15,38,19.30
2018,07,18,15,39,19.30
2018,07,18,15,40,19.30
2018,07,18,15,41,19.30
2018,07,18,15,42,19.40
2018,07,18,15,43,19.40
2018,07,18,15,44,19.40
2018,07,18,15,45,19.40
2018,07,18,15,46,19.30
2018,07,18,15,47,19.30
2018,07,18,15,48,19.20
2018,07,18,15,49,19.20
2018,07,18,15,50,19.20
2018,07,18,15,51,19.20
2018,07,18,15,52,19.20
2018,07,18,15,53,19.30
2018,07,18,15,54,19.30
2018,07,18,15,55,19.30
2018,07,18,15,56,19.40
2018,07,18,15,57,19.50
2018,07,18,15,58,19.50
2018,07,18,15,59,19.60
2018,07,18,16,00,19.50
2018,07,18,16,01,19.50
2018,07,18,16,02,19.50
2018,07,18,16,03,19.40
2018,07,18,16,04,19.40
2018,07,18,16,05,19.30
2018,07,18,16,06,19.20
2018,07,18,16,07,19.10
2018,07,18,16,08,19.00
2018,07,18,16,09,19.00
2018,07,18,16,10,18.90
2018,07,18,16,11,18.90
2018,07,18,16,12,18.90
2018,07,18,16,13,18.80
2018,07,18,16,14,18.80
2018,07,18,16,15,18.80
2018,07,18,16,16,18.80
2018,07,18,16,17,18.70
2018,07,18,16,18,18.70
2018,07,18,16,19,18.80
2018,07,18,16,20,18.80
2018,07,18,16,21,18.80
2018,07,18,16,22,18.80
2018,07,18,16,23,18.80
2018,07,18,16,24,18.70
2018,07,18,16,25,18.70
2018,07,18,16,26,18.70
2018,07,18,16,27,18.70
2018,07,18,16,28,18.70
2018,07,18,16,29,18.80
2018,07,18,16,30,18.80
2018,07,18,16,31,18.80
2018,07,18,16,32,18.80
2018,07,18,16,33,18.80
2018,07,18,16,34,18.80
2018,07,18,16,35,18.80
2018,07,18,16,36,18.80
2018,07,18,16,37,19.00
2018,07,18,16,38,19.10
2018,07,18,16,39,19.20
2018,07,18,16,40,19.40
2018,07,18,16,41,19.40
2018,07,18,16,42,19.50
2018,07,18,16,43,19.60
2018,07,18,16,44,19.60
2018,07,18,16,45,19.60
2018,07,18,16,46,19.60
2018,07,18,16,47,19.60
2018,07,18,16,48,19.50
2018,07,18,16,49,19.50
2018,07,18,16,50,19.50
2018,07,18,16,51,19.50
2018,07,18,16,52,19.50
2018,07,18,16,53,19.50
2018,07,18,16,54,19.50
2018,07,18,16,55,19.50
2018,07,18,16,56,19.60
2018,07,18,16,57,19.70
2018,07,18,16,58,19.80
2018,07,18,16,59,19.80
2018,07,18,17,00,19.80
2018,07,18,17,01,19.90
2018,07,18,17,02,19.90
2018,07,18,17,03,19.90
2018,07,18,17,04,19.90
2018,07,18,17,05,19.90
2018,07,18,17,06,19.90
2018,07,18,17,07,19.90
2018,07,18,17,08,19.90
2018,07,18,17,09,19.90
2018,07,18,17,10,19.90
2018,07,18,17,11,20.00
2018,07,18,17,12,20.10
2018,07,18,17,13,20.10
2018,07,18,17,14,20.20
2018,07,18,17,15,20.20
2018,07,18,17,16,20.30
2018,07,18,17,17,20.40
2018,07,18,17,18,20.40
2018,07,18,17,19,20.50